Weather History for Syracuse, NY

Change the Weather History Date:

Friday, January 11, 2013

  Actual Average Record
Temperature  
Mean Temperature 35 °F 24 °F  
Max Temperature 43 °F 31 °F 67 °F (1975)
Min Temperature 27 °F 16 °F -18 °F (1968)
Degree Days  
Heating Degree Days 30 41  
Month to date heating degree days 407 449  
Since 1 July heating degree days 2525 2902  
Cooling Degree Days 0 0  
Month to date cooling degree days 0 0  
Year to date cooling degree days 0 0  
Moisture  
Dew Point 28 °F    
Average Humidity 68    
Maximum Humidity 81    
Minimum Humidity 55    
Precipitation  
Precipitation 0.19 in 0.08 in 1.69 in (1922)
Month to date precipitation 0.29 0.97  
Year to date precipitation 0.29 0.97  
Snow  
Snow 0.00 in 1.10 in 10.40 in (1991)
Month to date snowfall 4.1 11.6  
Since 1 July snowfall 39.3 54.2  
Snow Depth 4.00 in    
Sea Level Pressure  
Sea Level Pressure 30.16 in    
Wind  
Wind Speed 8 mph (ESE)    
Max Wind Speed 18 mph    
Max Gust Speed 25 mph    
Visibility 9 miles    
Events Rain    
T = Trace of Precipitation, MM = Missing Value Source: NWS Daily Summary

Daily Weather History Graph

Daily Weather History Graph

Search for Another Location

Airport:

Trip Planner

Search our weather history database for the weather conditions in past years. The results will help you decide how hot, cold, wet, or windy it might be!

Date:

Astronomy

Jan. 11, 2013 Rise Set
Actual Time 7:34 AM EST 4:50 PM EST
Civil Twilight 7:03 AM EST 5:22 PM EST
Nautical Twilight 6:27 AM EST 5:57 PM EST
Astronomical Twilight 5:53 AM EST 6:31 PM EST
Moon 7:04 AM EST (1/11) 5:07 PM EST (1/11)
Length of Visible Light 10h 19m
Length of Day
9h 15m
Waning Crescent, 0% of the Moon is Illuminated
Jan 11
Waning Crescent
Jan 11
New
Jan 18
First Quarter
Jan 26
Full
Feb 3
Last Quarter

Hourly Weather History & Observations

Time (EST) Temp. Windchill Dew Point Humidity Pressure Visibility Wind Dir Wind Speed Gust Speed Precip Events Conditions
12:54 AM 27.0 °F 23.0 °F 21.0 °F 78% 30.47 in 10.0 mi East 3.5 mph - N/A   Mostly Cloudy
1:54 AM 28.0 °F 21.7 °F 21.9 °F 78% 30.44 in 10.0 mi East 5.8 mph - N/A   Overcast
2:54 AM 28.9 °F 22.8 °F 21.9 °F 75% 30.41 in 10.0 mi East 5.8 mph - N/A   Overcast
3:54 AM 30.0 °F 20.5 °F 21.9 °F 72% 30.37 in 10.0 mi ENE 11.5 mph - N/A   Overcast
4:54 AM 30.0 °F 21.1 °F 21.9 °F 72% 30.34 in 10.0 mi ENE 10.4 mph - N/A   Overcast
5:54 AM 30.0 °F 21.7 °F 21.9 °F 72% 30.32 in 10.0 mi ENE 9.2 mph - N/A   Overcast
6:54 AM 30.9 °F 22.8 °F 21.9 °F 69% 30.29 in 10.0 mi ENE 9.2 mph - N/A   Overcast
7:54 AM 32.0 °F 23.0 °F 21.9 °F 66% 30.29 in 10.0 mi ENE 11.5 mph - N/A   Overcast
8:54 AM 34.0 °F 28.8 °F 23.0 °F 64% 30.25 in 10.0 mi East 5.8 mph - N/A   Overcast
9:54 AM 37.9 °F 32.7 °F 24.1 °F 57% 30.22 in 10.0 mi East 6.9 mph - N/A   Overcast
10:54 AM 41.0 °F 32.8 °F 27.0 °F 57% 30.20 in 10.0 mi SSE 16.1 mph 23.0 mph 0.00 in   Overcast
11:54 AM 39.9 °F 33.4 °F 27.0 °F 60% 30.14 in 10.0 mi East 10.4 mph - 0.00 in Rain Light Rain
12:54 PM 39.0 °F 32.8 °F 30.0 °F 70% 30.11 in 10.0 mi ESE 9.2 mph - 0.03 in Rain Light Rain
1:54 PM 37.9 °F 30.9 °F 30.9 °F 76% 30.08 in 10.0 mi East 10.4 mph - 0.02 in   Overcast
2:54 PM 39.9 °F 34.5 °F 30.0 °F 68% 30.06 in 10.0 mi ENE 8.1 mph - N/A   Overcast
3:54 PM 39.9 °F 36.7 °F 30.0 °F 68% 30.06 in 10.0 mi East 4.6 mph - 0.00 in Rain Light Rain
4:22 PM 39.2 °F 35.9 °F 32.0 °F 75% 30.04 in 2.5 mi ESE 4.6 mph - 0.06 in Rain Light Rain
4:31 PM 39.2 °F 32.5 °F 33.8 °F 81% 30.03 in 4.0 mi SE 10.4 mph - 0.07 in Rain Rain
4:54 PM 39.9 °F 31.4 °F 33.1 °F 77% 30.00 in 5.0 mi SE 16.1 mph 25.3 mph 0.11 in Rain Rain
5:54 PM 39.9 °F 35.1 °F 33.1 °F 77% 30.03 in 10.0 mi ESE 6.9 mph - 0.03 in   Overcast
6:54 PM 41.0 °F - 33.1 °F 73% 30.05 in 10.0 mi Calm Calm - N/A   Overcast
7:29 PM 41.0 °F 34.3 °F 33.8 °F 76% 30.03 in 9.0 mi SSE 11.5 mph - 0.00 in Rain Light Rain
7:54 PM 41.0 °F 36.4 °F 34.0 °F 76% 30.03 in 10.0 mi ESE 6.9 mph - 0.00 in Rain Light Rain
8:54 PM 41.0 °F 38.0 °F 34.0 °F 76% 30.01 in 10.0 mi SSE 4.6 mph - 0.00 in   Overcast
9:54 PM 42.1 °F 35.7 °F 34.0 °F 73% 30.03 in 10.0 mi South 11.5 mph - N/A   Overcast
10:54 PM 41.0 °F 38.0 °F 35.1 °F 79% 30.01 in 10.0 mi East 4.6 mph - N/A   Overcast
11:50 PM 41.0 °F - 35.6 °F 81% 30.02 in 10.0 mi Calm Calm - N/A   Overcast
11:54 PM 41.0 °F 39.0 °F 36.0 °F 82% 30.03 in 10.0 mi ESE 3.5 mph - N/A   Overcast